Regional Weather Roundup
Issued by NWS Sterling, VA

Home | Current Version | Previous Version | Graphics & Text | Print | Product List | Glossary On
Versions: 1 2 3 4 5 6 7 8 9 10 11 12 13 14 15 16 17 18 19 20 21 22 23 24 25 26 27 28 29 30 31 32 33 34 35 36 37 38 39 40 41 42 43 44 45 46 47 48 49 50
000
ASUS41 KLWX 290110
RWRLWX

REGIONAL WEATHER ROUNDUP
NATIONAL WEATHER SERVICE BALTIMORE MD/WASHINGTON DC
900 PM EDT THU JUL 28 2016

Note: "FAIR" indicates few or no clouds below 12,000 feet
with no significant weather and/or obstructions to visibility.
 TC=TEMPERATURE CELSIUS

 * =Non NWS site. Station does not report precipitation (e.g. rain,
    snow, etc.), thunder, or fog.

DCZ001-MDZ009-015-VAZ040>042-051-053>054-290200-
WASHINGTON METRO

CITY           SKY/WX    TMP DP  RH WIND       PRES   REMARKS
WASHINGTON NAT TSTM      78  74  87 N9        29.86S
DULLES         LGT RAIN  74  73  97 E8        29.87R FOG
QUANTICO       TSTM      79  74  84 N20       29.84R
LEESBURG*      LGT RAIN  77  77 100 NE6       29.87F
MANASSAS*      CLOUDY    75  73  94 NE14      29.85F
GAITHERSBURG*  CLOUDY    73  70  88 CALM      29.92R

$$

MDZ006>007-011-014-290200-
BALTIMORE METRO

CITY           SKY/WX    TMP DP  RH WIND       PRES   REMARKS
BWI AIRPORT    CLOUDY    76  73  91 E7        29.85S
MD SCIENCE CTR   N/A     76  73  91 MISG      29.86F
MARTIN STATE   CLOUDY    77  75  94 SE8       29.88R
ANNAPOLIS      CLOUDY    79  74  84 CALM      29.84F
FORT MEADE*    CLOUDY    73  72  94 NE3       29.88S

$$

MDZ012-015-019>023-290200-
MARYLAND EASTERN SHORE

CITY           SKY/WX    TMP DP  RH WIND       PRES   REMARKS
OCEAN CITY       N/A    N/A N/A N/A MISG      29.91R
SALISBURY      NOT AVBL
BAY BRIDGE AP* CLOUDY    77  73  88 SE8       29.84F
CAMBRIDGE*     CLOUDY    72  72 100 E3        29.84F
EASTON*        CLOUDY    75  75 100 SE7       29.88F

$$

MDZ017>025-290200-
SOUTHERN MARYLAND

CITY           SKY/WX    TMP DP  RH WIND       PRES   REMARKS
PATUXENT RIVER CLOUDY    78  73  84 E13       29.82F
ST INIGOES     TSTM      77  74  90 NE10      29.82F
LEONARDTOWN*   CLOUDY    73  72  94 E5        29.83F

$$

MDZ003>005-290200-
NORTH CENTRAL MARYLAND

CITY           SKY/WX    TMP DP  RH WIND       PRES   REMARKS
FREDERICK*     RAIN      73  73 100 E3        29.89S
HAGERSTOWN APT LGT RAIN  73  69  87 E3        29.87F

$$

MDZ501>502-290200-
WESTERN MARYLAND

CITY           SKY/WX    TMP DP  RH WIND       PRES   REMARKS
OAKLAND*       CLOUDY    63  63 100 CALM      29.99R
CUMBERLAND*    CLOUDY    72  70  94 N3        29.93S

$$

VAZ025>031-290200-
SHENANDOAH VALLEY

CITY           SKY/WX    TMP DP  RH WIND       PRES   REMARKS
WINCHESTER*    MOCLDY    72  70  94 CALM      29.88F FOG
FRONT ROYAL*   CLOUDY    72  70  94 SE3       29.88S
LURAY*         NOT AVBL
NEW MARKET*    CLOUDY   N/A N/A N/A CALM      29.88S
STAUNTON*      CLOUDY    72  69  90 N7        29.91F
WAYNESBORO*    CLOUDY    72  68  89 N7        29.91S

$$

WVZ021-048>050-054>055-290200-
EASTERN WEST VIRGINIA PANHANDLE

CITY           SKY/WX    TMP DP  RH WIND       PRES   REMARKS
MARTINSBURG    LGT RAIN  72  70  93 E6        29.86F
PETERSBURG*    CLOUDY    72  71  97 CALM      29.90S

$$

VAZ036>039-050-290200-
CENTRAL FOOTHILLS

CITY           SKY/WX    TMP DP  RH WIND       PRES   REMARKS
CHARLOTTESVILL CLOUDY    78  71  79 NE14      29.86R
CULPEPER*      MOCLDY    74  73  97 N8        29.86S
ORANGE*        TSTM      73  73 100 N7G16     29.86R
GORDONSVILLE*  CLOUDY    75  73  95 SW5       29.87R FOG
WARRENTON*     CLOUDY    75  69  82 N5        29.85F

$$

VAZ055>057-290200-
NORTH AND CENTRAL PIEDMONT

CITY           SKY/WX    TMP DP  RH WIND       PRES   REMARKS
FREDERICKSBRG* RAIN      78  78 100 CALM      29.84R
STAFFORD*      TSTM      76  73  91 NW12      29.88R

$$

NCZ024-NYZ072-PAZ021-071-VAZ022-071-290200-
OTHER REGIONAL OBSERVATIONS

CITY           SKY/WX    TMP DP  RH WIND       PRES   REMARKS
NEW YORK CITY  CLOUDY    79  67  66 W3        29.90S
PHILADELPHIA   LGT RAIN  76  72  87 E5        29.88R
PITTSBURGH     CLOUDY    71  67  87 CALM      29.92R
ROANOKE        MOCLDY    80  75  84 NE6       29.87S
RICHMOND       MOCLDY    86  76  71 SE5       29.79S HX  96
RALEIGH        PTCLDY    88  71  57 SW12      29.84R HX  94

$$

ANZ530>537-290200-
MARINE OBSERVATIONS

STATION/POSITION TIME  TEMP    WIND        PRES
                       AIR SEA DIR/SP/G
                 (UTC) (F)     (DEG/KT/KT) (MB)
THOMAS PT LIGHT  0100   79 84  130/ 12/ 14 1011.3F
BALT KEY BRIDGE  0036          110/ 15/ 16 1010.9
COVE POINT       0036          120/ 14/ 18 1010.5
LEWISETTA        0048      87  110/ 18/ 20 1009.4
SOLOMONS ISLAND  0042      87  100/ 13/ 17   N/A
PINEY POINT      0036          100/ 10/ 12   N/A

$$




USA.gov is the U.S. government's official web portal to all federal, state and local government web resources and services.